Temp
83 78 74 75 77 77 75 73 71 76 80 74 75 76 80 82 80 80 80 80 79 79 83 84 83 83 82 82 80 79 78 77 77 79 79 82 83 86 89 92 92 92 90 89
77 73 77 79 77 74 73 71 72 75 78 75 75 75 80 82 79 80 79 79 78 79 81 82 82 82 81 80 79 78 77 76 76 78 77 77 78 81 82 84 84 85 85 88
73 75 78 75 74 71 74 70 71 70 76 78 75 71 76 78 79 78 79 79 79 79 79 81 82 81 81 79 79 79 77 76 76 75 77 78 79 81 81 83 84 85 85 85
77 78 74 73 70 73 68 75 72 70 69 64 76 60 71 74 73 75 76 76 79 80 82 82 82 81 80 81 81 80 78 76 77 76 75 71 71 72 78 80 82 82 83 83
71 72 71 70 70 74 71 74 72 71 68 67 69 64 70 74 71 70 70 77 79 82 82 82 83 82 83 82 81 80 78 77 75 72 70 68 67 72 75 77 76 77 79 80
75 79 76 74 75 75 76 72 73 72 70 57 66 65 63 58 64 70 76 78 80 81 82 83 83 83 82 84 82 80 77 75 76 74 72 69 67 68 68 70 69 73 78 81
71 73 76 76 72 76 75 69 57 57 58 58 67 63 66 70 73 73 73 77 80 81 82 82 81 81 80 81 80 80 76 74 75 75 74 71 68 67 65 66 68 71 75 78
66 61 72 75 71 69 69 67 50 36 50 59 69 58 61 72 74 75 78 78 80 80 82 81 81 80 81 81 80 78 76 74 74 74 72 71 68 69 68 68 66 68 69 74
66 64 74 73 75 74 68 66 69 55 60 53 63 65 71 73 73 73 74 76 76 78 79 80 81 81 80 80 78 78 76 74 73 72 70 68 67 66 65 63 63 65 65 69
68 59 71 72 74 74 70 73 58 59 39 43 60 59 58 61 65 69 70 72 76 78 79 79 80 80 81 80 79 77 75 73 73 71 69 65 64 62 63 62 60 62 65 67
72 65 66 70 68 68 68 66 65 62 58 43 42 56 67 66 68 67 70 75 77 77 79 79 80 81 81 80 79 75 74 72 69 65 62 61 60 59 59 59 60 61 62 63
71 65 61 67 75 75 72 68 65 55 51 52 50 51 72 71 70 72 71 76 78 78 79 80 80 79 78 77 75 73 71 68 63 61 59 58 57 56 56 58 59 61 60 62
70 63 56 61 68 70 65 69 68 65 62 53 43 50 72 74 71 70 74 76 77 77 78 78 78 77 76 74 73 71 67 62 61 60 57 55 54 53 54 55 57 58 59 59
66 63 59 49 61 68 62 65 68 64 55 55 53 56 67 70 69 73 73 75 76 76 76 76 75 74 73 72 70 66 62 59 58 57 54 52 53 54 55 55 54 54 55 56
66 57 63 66 68 68 65 65 66 63 64 55 60 60 66 66 67 72 74 74 74 73 73 73 73 72 71 68 65 61 57 56 54 53 51 52 54 53 52 52 54 55 55 56
68 57 62 60 66 66 63 67 67 66 66 66 65 63 67 71 74 72 72 72 71 71 72 72 72 71 68 65 58 56 54 53 51 49 49 51 52 51 51 53 52 54 58 59
63 60 58 53 64 64 57 65 66 68 70 68 61 66 73 70 70 70 71 70 70 71 71 70 69 67 64 59 56 52 50 50 48 47 49 49 49 49 50 50 50 50 50 51
62 60 59 54 58 46 65 72 71 66 69 71 70 70 71 70 71 73 71 70 71 71 70 69 67 64 62 59 54 51 49 48 47 46 46 48 48 48 48 47 47 46 47 46
67 60 55 52 53 59 65 69 66 64 63 72 70 70 71 72 72 72 74 75 73 71 70 68 65 63 60 54 50 46 45 46 45 44 45 46 45 44 45 44 44 45 44 44
66 63 57 55 49 42 62 68 72 71 57 69 69 68 68 70 62 68 72 74 73 72 71 67 64 63 57 50 45 43 44 43 43 43 44 44 44 44 43 43 43 44 43 43
57 58 53 53 51 58 66 69 70 53 55 67 69 69 68 65 68 71 74 73 73 72 70 68 64 59 51 46 42 41 42 41 43 43 44 44 44 43 43 43 43 43 42 43
58 54 55 56 51 45 70 68 59 61 67 69 69 70 68 70 71 73 73 71 71 70 68 65 61 55 49 43 40 39 41 43 43 42 42 42 42 43 43 43 42 43 42 41
55 62 58 54 50 64 69 66 69 69 67 69 69 70 70 69 70 72 71 71 71 69 65 62 57 52 47 40 39 38 41 42 40 41 40 40 41 42 43 41 41 40 41 40
64 68 61 61 66 68 71 71 71 71 69 71 71 71 72 70 71 71 71 70 70 68 61 58 53 48 41 39 39 40 42 42 40 39 40 41 41 41 41 40 41 40 39 39
66 65 60 60 66 69 70 71 71 71 71 71 72 72 71 72 70 69 70 69 68 64 61 56 50 45 38 39 39 40 42 42 41 40 40 40 39 38 37 37 38 37 38 39
69 63 59 59 67 66 66 70 71 69 68 70 69 70 73 71 67 71 70 70 66 59 56 52 49 44 38 38 38 40 42 41 39 38 39 39 39 39 38 37 36 38 38 39
MSLP
1006.07 1005.16 1004.74 1005.23 1005.49 1005.30 1004.80 1004.49 1004.09 1004.18 1004.85 1005.65 1004.94 1004.59 1004.92 1005.53 1006.95 1007.14 1007.74 1008.51 1009.04 1009.50 1009.84 1010.06 1010.28 1010.41 1010.40 1010.48 1010.49 1010.49 1010.38 1010.28 1010.11 1009.43 1008.83 1007.99 1007.29 1006.67 1006.03 1005.35 1005.10 1005.20 1005.44 1005.65
1005.98 1005.23 1006.23 1006.33 1006.28 1005.94 1005.43 1004.93 1004.31 1004.66 1005.09 1005.74 1005.12 1004.57 1004.60 1004.92 1006.44 1007.17 1008.07 1008.52 1009.05 1009.43 1009.60 1009.71 1009.80 1009.99 1010.20 1010.26 1010.25 1010.24 1010.19 1010.18 1010.06 1009.59 1009.21 1008.93 1008.32 1007.66 1007.08 1006.48 1005.87 1005.60 1005.44 1005.02
1005.45 1006.18 1006.68 1006.67 1006.35 1006.10 1005.35 1005.24 1005.00 1005.30 1005.27 1005.18 1004.72 1004.20 1003.69 1005.40 1006.66 1007.69 1008.45 1008.98 1009.10 1009.26 1009.35 1009.22 1009.16 1009.41 1009.70 1009.83 1009.87 1009.85 1009.92 1009.97 1009.87 1009.74 1009.06 1008.46 1007.84 1007.05 1006.37 1005.76 1005.44 1005.20 1005.16 1005.02
1005.80 1006.91 1006.92 1006.58 1006.66 1006.77 1005.58 1005.86 1006.30 1006.07 1005.68 1004.38 1004.25 1003.99 1003.89 1005.12 1006.58 1007.34 1008.08 1008.56 1008.56 1008.64 1008.81 1008.75 1008.70 1008.87 1009.14 1009.25 1009.40 1009.37 1009.46 1009.62 1009.48 1009.43 1009.12 1008.94 1008.66 1007.56 1006.72 1006.12 1005.54 1005.18 1004.98 1004.82
1006.36 1006.85 1007.06 1006.80 1007.01 1007.38 1006.25 1006.97 1006.73 1006.33 1005.88 1005.39 1004.45 1004.18 1003.52 1004.96 1005.56 1006.90 1008.73 1008.27 1008.34 1008.53 1008.45 1008.32 1008.40 1008.69 1008.74 1008.82 1008.82 1008.92 1009.05 1009.15 1009.22 1009.42 1009.54 1009.29 1008.96 1008.16 1007.15 1006.44 1005.76 1005.39 1005.04 1004.78
1006.72 1007.60 1007.55 1007.48 1007.66 1007.62 1007.42 1007.00 1006.29 1006.02 1005.52 1004.76 1004.03 1004.88 1004.58 1006.60 1007.53 1007.57 1007.47 1008.03 1008.25 1008.34 1008.38 1008.16 1008.37 1008.40 1008.36 1008.42 1008.49 1008.75 1008.79 1008.68 1008.68 1008.63 1008.77 1008.78 1008.57 1008.30 1007.83 1007.11 1006.63 1005.85 1004.86 1004.09
1007.04 1007.06 1007.66 1008.12 1007.17 1007.17 1006.84 1006.30 1006.01 1005.25 1004.50 1003.87 1005.00 1005.29 1005.21 1006.60 1007.18 1007.83 1008.10 1008.09 1008.11 1008.17 1008.07 1008.08 1007.99 1008.07 1008.20 1008.09 1008.34 1008.51 1008.55 1008.52 1008.28 1008.02 1007.79 1007.81 1007.92 1007.82 1007.61 1007.21 1006.47 1005.53 1004.59 1003.61
1005.82 1006.46 1007.18 1007.95 1007.67 1007.16 1007.06 1007.37 1007.90 1007.83 1006.17 1005.29 1005.21 1004.81 1006.24 1007.18 1007.97 1008.24 1008.12 1008.25 1008.06 1007.93 1008.00 1007.91 1007.74 1008.01 1007.83 1007.82 1007.99 1008.35 1008.33 1008.13 1008.12 1007.89 1007.78 1007.77 1007.60 1007.20 1006.86 1006.56 1006.30 1005.70 1005.11 1003.87
1006.59 1006.52 1007.73 1008.20 1008.14 1007.95 1007.04 1007.08 1008.44 1008.81 1008.33 1007.55 1005.40 1005.69 1006.41 1007.36 1007.72 1008.11 1008.26 1008.26 1008.12 1008.12 1008.00 1007.68 1007.70 1007.56 1007.52 1007.54 1007.70 1007.94 1008.05 1008.14 1007.99 1007.77 1007.72 1007.65 1007.41 1007.10 1006.66 1006.54 1006.13 1005.52 1005.08 1004.42
1007.71 1007.47 1007.57 1007.88 1008.34 1008.22 1007.90 1008.32 1008.51 1009.04 1009.61 1008.27 1005.84 1006.06 1006.73 1007.88 1008.66 1008.68 1008.59 1008.25 1007.84 1007.86 1007.77 1007.75 1007.56 1007.28 1007.18 1007.21 1007.47 1007.67 1008.06 1008.03 1007.71 1007.60 1007.47 1007.56 1007.36 1007.12 1006.64 1006.11 1005.59 1005.04 1004.43 1003.81
1008.41 1008.50 1007.52 1008.16 1007.42 1006.57 1007.36 1007.46 1008.29 1009.36 1009.53 1009.90 1008.95 1007.30 1007.94 1007.82 1008.58 1008.86 1008.60 1007.97 1007.72 1007.78 1007.52 1007.54 1007.29 1007.02 1007.01 1007.14 1007.30 1007.66 1007.82 1007.79 1007.76 1007.97 1007.90 1007.52 1007.15 1006.76 1006.26 1005.64 1004.94 1004.34 1003.77 1003.37
1009.10 1008.90 1007.63 1006.82 1006.78 1007.61 1007.48 1007.40 1008.03 1008.66 1009.46 1010.06 1009.75 1008.78 1008.07 1008.21 1008.67 1008.46 1008.41 1007.65 1007.67 1007.67 1007.62 1007.26 1007.09 1007.14 1007.14 1007.21 1007.44 1007.67 1007.82 1007.99 1008.39 1008.18 1007.81 1007.31 1006.91 1006.37 1005.60 1004.75 1004.04 1003.50 1002.96 1002.46
1009.52 1009.11 1008.11 1006.86 1007.16 1007.80 1007.68 1007.55 1008.10 1008.67 1009.38 1009.35 1009.42 1008.90 1007.96 1007.65 1008.18 1008.26 1007.68 1007.52 1007.50 1007.57 1007.46 1007.24 1007.15 1007.08 1007.13 1007.31 1007.59 1007.81 1008.28 1008.56 1008.43 1008.04 1007.62 1007.02 1006.40 1005.69 1004.80 1003.96 1003.22 1002.60 1002.06 1001.47
1011.04 1009.96 1008.98 1008.09 1006.82 1006.87 1007.11 1007.33 1007.75 1008.12 1008.42 1008.30 1008.16 1008.32 1007.13 1007.10 1007.48 1007.32 1007.46 1007.56 1007.55 1007.42 1007.28 1007.32 1007.32 1007.20 1007.40 1007.68 1007.92 1008.46 1008.77 1008.82 1008.48 1007.93 1007.37 1006.58 1005.62 1004.69 1003.83 1003.07 1002.25 1001.49 1000.83 1000.26
1011.14 1010.19 1009.23 1008.33 1007.71 1007.28 1007.06 1006.98 1007.06 1007.14 1007.36 1007.28 1007.32 1007.28 1007.12 1007.76 1008.04 1007.38 1007.58 1007.68 1007.55 1007.46 1007.72 1007.64 1007.34 1007.30 1007.63 1008.07 1008.62 1009.24 1009.26 1008.90 1008.44 1007.78 1007.01 1006.00 1005.01 1004.23 1003.23 1002.08 1000.97 999.70 998.77 998.71
1010.61 1010.24 1009.48 1008.61 1007.82 1007.41 1006.77 1006.46 1006.35 1006.51 1006.65 1006.39 1006.46 1006.55 1007.53 1007.77 1007.31 1007.48 1007.73 1007.73 1007.62 1007.88 1007.88 1007.70 1007.56 1007.67 1008.15 1008.66 1009.48 1009.69 1009.42 1009.06 1008.59 1007.79 1006.78 1005.77 1004.69 1003.68 1002.50 1001.50 1000.57 999.08 997.70 997.71
1010.26 1010.24 1009.61 1008.47 1007.68 1006.71 1006.12 1005.58 1005.40 1005.44 1005.62 1005.58 1005.84 1006.32 1006.69 1007.07 1007.49 1007.76 1007.82 1008.27 1007.96 1007.91 1007.89 1007.89 1008.03 1008.38 1008.92 1009.45 1010.03 1010.07 1009.81 1009.20 1008.51 1007.63 1006.58 1005.56 1004.45 1003.30 1002.33 1001.66 1000.86 999.93 999.16 998.76
1009.86 1010.12 1010.03 1009.01 1008.16 1006.72 1005.46 1005.56 1005.70 1005.88 1005.83 1006.17 1006.25 1006.54 1007.07 1007.59 1007.82 1007.85 1008.28 1008.24 1007.94 1007.90 1008.10 1008.38 1008.84 1009.26 1009.44 1010.00 1010.60 1010.68 1010.10 1009.36 1008.65 1007.68 1006.64 1005.56 1004.54 1003.70 1002.91 1002.20 1001.49 1000.96 1000.63 1000.14
1009.90 1010.25 1009.74 1008.92 1007.84 1006.89 1005.96 1005.44 1006.00 1005.85 1006.20 1006.49 1006.71 1007.29 1007.76 1008.03 1008.07 1007.20 1007.70 1007.92 1007.92 1008.19 1008.55 1009.01 1009.58 1009.70 1009.97 1010.82 1011.33 1011.04 1010.20 1009.53 1008.80 1007.80 1006.90 1005.98 1005.26 1004.38 1003.71 1003.03 1002.60 1002.32 1001.92 1001.56
1009.80 1010.33 1010.26 1009.13 1007.92 1006.86 1006.27 1006.52 1006.92 1007.02 1007.25 1007.78 1008.30 1008.41 1008.53 1008.47 1007.78 1007.33 1008.14 1008.19 1008.16 1008.51 1008.84 1009.38 1009.88 1009.96 1010.87 1011.75 1011.94 1011.20 1010.47 1009.84 1008.99 1008.27 1007.44 1006.62 1006.03 1005.24 1004.66 1004.39 1003.92 1003.86 1003.35 1003.18
1009.19 1009.41 1009.41 1008.97 1008.26 1007.28 1007.03 1007.33 1007.92 1008.01 1009.11 1009.26 1009.30 1009.26 1009.10 1009.01 1008.99 1008.72 1008.43 1008.32 1008.56 1008.86 1009.19 1009.85 1010.26 1010.88 1011.90 1012.52 1012.34 1011.60 1010.85 1010.23 1009.61 1008.90 1008.09 1007.34 1006.83 1006.26 1005.82 1005.50 1005.34 1004.98 1004.82 1004.45
1007.64 1008.28 1008.00 1008.16 1007.91 1007.66 1007.40 1008.07 1008.64 1009.66 1009.77 1009.64 1009.57 1009.60 1009.50 1009.47 1009.13 1008.77 1008.50 1008.63 1008.80 1009.07 1009.60 1010.51 1010.98 1011.77 1012.58 1013.18 1012.84 1012.08 1011.29 1010.74 1010.14 1009.50 1008.92 1008.25 1007.80 1007.19 1007.02 1006.63 1006.49 1006.33 1006.12 1005.98
1008.02 1007.83 1007.76 1008.81 1009.19 1008.80 1008.80 1009.09 1009.69 1010.05 1010.06 1009.94 1010.08 1009.98 1009.81 1009.70 1009.28 1008.93 1008.84 1008.96 1009.12 1009.55 1010.46 1011.22 1012.15 1012.60 1013.30 1013.78 1013.32 1012.62 1011.78 1011.17 1010.71 1010.26 1009.76 1009.33 1008.79 1008.32 1008.12 1007.78 1007.67 1007.52 1007.58 1007.57
1007.94 1008.25 1008.51 1008.44 1007.93 1007.88 1008.17 1009.09 1009.70 1010.06 1010.43 1010.53 1010.40 1010.12 1009.82 1009.56 1009.58 1009.27 1009.31 1009.37 1009.56 1010.13 1011.30 1012.16 1012.97 1013.54 1014.17 1014.27 1013.83 1013.20 1012.35 1011.76 1011.37 1011.08 1010.67 1010.32 1009.93 1009.71 1009.56 1009.17 1009.18 1009.14 1009.13 1009.22
1007.87 1008.82 1008.82 1008.70 1008.44 1008.50 1008.63 1008.95 1009.40 1009.88 1010.52 1010.62 1010.37 1010.05 1009.86 1009.51 1009.68 1009.89 1009.71 1009.79 1010.23 1011.19 1012.05 1013.06 1013.75 1014.50 1015.00 1014.85 1014.32 1013.66 1013.04 1012.47 1012.08 1011.76 1011.54 1011.38 1011.33 1011.14 1011.02 1010.82 1010.93 1010.95 1011.16 1011.28
1008.09 1008.35 1008.86 1008.28 1008.52 1008.76 1009.02 1009.68 1010.07 1010.31 1010.68 1010.66 1010.40 1010.04 1009.70 1009.86 1010.29 1010.09 1010.15 1010.26 1011.12 1012.23 1013.06 1013.85 1014.39 1015.27 1015.61 1015.40 1014.94 1014.27 1013.73 1013.29 1012.91 1012.66 1012.52 1012.42 1012.30 1012.22 1012.28 1012.40 1012.78 1012.86 1012.98 1013.12
Wind_Speed
2 13 8 10 6 9 9 6 8 2 3 6 13 10 10 12 6 7 4 1 4 5 6 8 9 11 12 12 12 12 13 12 11 10 10 9 9 10 12 11 12 13 13 16
10 3 5 7 4 6 6 8 9 1 4 6 14 12 11 6 6 1 1 2 5 8 8 9 9 10 11 12 13 13 12 12 11 10 10 10 10 11 12 13 14 14 15 13
7 11 3 4 6 7 8 9 8 9 12 15 17 16 16 8 6 4 6 3 4 6 10 11 12 10 11 13 12 13 12 13 12 13 10 9 10 10 11 12 12 13 15 15
4 6 4 1 1 7 12 5 7 10 12 11 5 11 12 16 12 11 6 4 5 7 12 12 12 13 12 12 13 12 12 12 12 13 12 14 13 14 12 12 12 12 15 15
8 2 3 5 5 7 9 6 11 12 12 13 16 8 11 11 13 11 6 5 7 12 13 15 14 14 14 13 12 13 12 12 12 6 8 7 12 13 13 14 15 14 13 14
6 2 3 6 6 6 9 12 14 12 13 11 8 3 10 4 5 14 8 8 9 13 15 15 14 14 14 14 14 14 14 12 12 9 9 11 11 14 13 14 12 14 13 13
7 9 3 5 13 8 12 10 6 7 9 3 6 4 6 5 5 6 5 8 12 14 14 15 15 14 15 15 15 15 15 16 15 16 14 10 10 11 14 14 12 15 13 13
7 10 7 3 5 10 3 7 4 4 8 14 8 8 8 5 3 1 7 11 14 14 16 16 14 15 14 15 14 16 17 17 17 17 17 16 14 10 11 14 12 11 13 15
5 4 6 1 6 7 5 3 8 3 10 8 11 9 11 6 2 6 14 13 13 16 16 16 17 14 14 15 16 16 17 19 18 18 16 17 15 15 13 14 13 11 13 13
4 5 6 7 6 5 8 6 5 5 4 7 11 8 9 5 2 6 14 16 14 16 17 17 16 16 13 15 15 17 18 20 19 20 17 14 16 17 17 14 15 15 17 16
2 5 9 4 11 8 9 12 4 3 5 3 5 2 2 4 9 11 13 14 16 18 17 16 16 16 16 16 18 19 20 20 20 18 16 16 16 17 16 15 16 16 16 16
6 6 9 10 8 6 8 8 4 3 6 7 6 9 7 4 3 11 14 15 17 17 19 17 18 18 18 18 19 20 19 20 17 16 15 17 16 17 18 17 17 16 16 15
3 6 8 14 12 7 7 8 7 7 6 11 3 8 6 11 11 11 14 16 16 17 18 17 18 18 19 19 21 20 19 17 18 19 19 18 17 17 18 18 17 17 17 18
3 9 9 7 14 6 5 9 9 9 9 11 11 13 15 9 11 13 15 16 18 17 19 19 19 19 19 20 20 19 19 18 17 17 17 18 18 17 16 17 18 18 17 18
6 12 13 15 16 13 13 13 13 15 15 14 13 16 14 14 15 13 16 17 17 18 20 20 20 19 20 20 19 19 17 16 16 18 17 18 17 17 17 17 17 19 18 16
9 10 9 14 14 15 18 16 16 16 16 19 13 15 14 15 11 15 17 17 17 19 21 22 22 22 21 20 18 17 17 16 16 16 17 17 17 16 16 11 12 13 3 9
12 9 10 13 16 9 13 16 16 16 17 12 11 9 10 11 13 15 17 15 18 19 20 22 21 20 17 15 15 17 17 16 15 16 16 16 16 15 11 9 9 9 10 9
12 11 10 13 12 15 9 6 4 6 11 11 13 8 9 13 14 16 10 14 17 19 21 20 18 18 17 16 17 16 16 14 15 15 15 14 13 11 9 8 9 10 9 12
12 12 11 12 12 16 14 10 9 5 9 14 10 8 10 15 15 17 17 18 19 20 18 16 15 18 16 16 16 15 14 13 14 14 14 12 11 9 9 11 11 10 10 14
9 12 12 12 14 12 12 9 5 5 9 11 8 9 13 16 14 13 18 17 18 19 16 16 18 16 17 15 14 14 14 13 13 13 12 10 10 9 10 10 10 10 12 15
11 11 14 13 13 15 8 7 3 9 6 6 9 12 14 13 13 16 16 16 18 18 17 17 16 16 14 14 13 13 14 12 12 11 10 9 9 9 10 10 10 11 13 16
9 9 11 14 17 12 6 4 7 8 6 9 11 14 13 14 14 15 15 17 18 18 17 17 16 15 13 13 12 13 12 10 9 9 10 11 10 8 8 11 10 11 13 15
8 9 7 5 3 1 3 4 5 6 11 10 10 12 10 13 13 15 15 17 17 16 15 14 15 14 13 12 12 12 11 10 9 9 10 9 10 11 10 11 12 11 13 12
11 4 8 10 8 6 3 1 7 5 7 9 11 13 13 12 13 15 15 15 15 14 13 14 14 14 13 11 11 11 10 8 8 9 9 8 10 12 12 11 10 11 11 12
5 3 6 11 11 11 14 7 8 6 7 13 14 15 14 12 12 13 14 15 13 13 12 12 12 12 11 10 11 11 10 8 8 8 8 10 10 13 14 15 12 13 16 13
9 11 10 10 11 6 9 7 9 10 11 12 12 14 10 10 10 13 13 12 12 11 12 11 12 12 9 10 10 11 10 10 9 10 8 8 8 10 11 12 14 29 27 26
Wind_Direction
280 264 11 356 339 327 317 292 285 330 36 275 275 296 273 160 221 220 214 145 345 343 347 8 358 345 347 342 335 332 326 330 328 313 317 300 301 304 298 288 261 256 229 262
228 116 358 310 288 283 256 268 257 312 210 268 281 279 277 198 190 324 233 306 339 323 333 337 334 335 340 334 331 328 323 322 319 309 326 302 296 289 290 293 299 304 300 238
329 43 346 251 196 256 228 298 335 316 320 274 250 262 217 133 159 160 206 234 283 323 323 327 327 329 334 327 330 322 321 315 311 309 302 297 291 276 269 259 250 247 252 262
346 89 289 225 159 294 294 73 292 285 280 289 333 292 224 157 182 181 208 251 310 337 319 321 331 335 332 323 324 324 319 315 302 319 313 319 306 291 286 288 285 294 295 290
88 156 283 235 18 310 321 343 292 287 285 293 273 231 239 167 201 123 338 265 333 334 335 328 342 333 325 332 327 333 323 314 306 301 294 297 303 299 311 308 308 297 287 273
55 83 264 1 289 271 311 273 260 242 247 255 222 303 92 82 170 175 185 2 329 338 328 338 336 326 335 326 339 333 326 316 311 292 288 279 281 286 289 289 288 294 291 289
173 174 142 272 277 183 239 271 320 244 205 306 121 268 70 79 87 30 359 311 341 332 331 334 332 336 329 329 333 335 331 317 313 309 298 290 282 285 284 282 279 281 281 276
245 177 181 101 324 334 334 319 91 261 339 322 294 246 96 74 62 285 275 345 330 338 336 326 335 333 320 330 332 334 324 321 321 313 315 311 297 293 286 280 286 283 282 286
227 175 135 141 288 274 114 221 31 272 282 277 255 140 133 164 169 31 350 334 334 339 326 333 335 322 330 331 337 326 332 322 315 310 312 304 301 298 293 288 274 274 271 271
84 276 184 107 253 190 300 54 205 148 289 299 314 350 74 75 179 354 342 315 342 333 333 339 329 325 330 338 331 339 332 318 316 315 315 306 302 295 292 288 277 273 279 272
324 260 143 213 206 246 177 204 199 305 342 262 304 42 251 37 11 343 299 325 342 336 330 329 329 334 336 337 338 336 324 321 322 324 310 308 304 297 289 284 277 269 265 262
71 300 272 242 73 293 296 301 268 269 251 193 246 280 358 14 290 308 315 337 336 335 334 334 336 336 337 339 339 330 330 328 325 311 310 306 302 295 288 281 278 278 274 265
147 227 258 219 191 203 242 231 228 261 272 267 261 268 235 325 334 299 323 331 336 339 325 329 336 333 337 339 334 334 331 328 319 318 312 306 297 291 285 281 277 275 270 266
349 272 257 265 328 337 251 228 265 258 273 255 256 268 295 314 331 337 339 337 334 325 337 337 331 335 339 338 337 336 328 327 322 316 311 303 298 299 296 292 280 270 260 255
242 263 261 258 266 277 273 264 266 248 254 270 278 287 305 6 317 338 335 336 319 347 335 333 330 338 340 336 339 332 327 324 322 317 313 307 313 306 300 292 286 277 249 241
207 267 266 280 278 263 266 264 262 256 268 268 271 274 32 284 339 340 337 323 345 341 336 332 338 338 336 342 336 331 327 321 323 318 311 314 312 309 303 316 316 330 319 246
233 244 258 266 277 276 263 252 256 251 247 271 281 315 312 345 345 343 325 328 341 339 335 338 338 339 341 341 341 334 325 323 323 316 318 318 317 319 334 339 346 4 34 43
248 235 259 267 283 264 256 29 331 308 317 302 289 341 348 340 340 316 23 331 340 343 343 341 344 336 335 355 345 332 327 326 326 322 324 323 334 341 348 5 22 32 42 55
226 253 260 251 251 260 266 211 218 280 319 328 327 350 334 342 322 283 16 349 344 350 347 346 344 331 360 354 345 328 322 335 328 333 331 346 350 353 10 27 33 42 59 63
238 224 251 255 258 255 284 97 18 360 278 31 12 343 337 334 312 344 342 339 347 348 350 353 338 351 357 355 339 329 333 339 337 344 345 354 358 14 36 39 43 54 63 74
199 216 223 237 254 269 70 68 334 265 47 356 347 324 330 324 321 319 332 345 350 348 351 354 348 1 1 356 340 336 331 344 345 350 351 7 15 28 45 55 56 67 75 78
211 201 225 230 248 252 69 207 259 30 325 330 335 332 331 323 320 325 340 348 345 351 358 358 359 354 10 356 343 336 346 348 359 359 12 20 22 38 47 61 64 71 76 80
249 281 308 163 341 57 62 36 3 346 325 337 332 326 325 317 326 328 347 344 346 355 10 3 1 353 5 352 346 337 349 356 17 16 28 31 38 46 49 62 64 67 67 71
200 253 271 294 275 267 297 352 253 244 312 320 315 313 313 309 323 339 342 343 349 8 3 15 0 7 359 351 344 338 360 8 40 39 37 40 56 61 57 57 56 65 62 72
302 12 261 263 263 278 264 314 357 7 307 316 310 310 303 311 335 332 339 342 1 12 11 15 7 17 359 353 351 358 7 25 38 43 52 61 64 67 65 57 55 63 55 60
250 238 254 272 322 338 319 349 341 319 320 314 320 318 312 342 331 339 340 345 13 10 30 12 15 29 2 6 0 13 26 45 42 44 52 61 68 68 69 70 67 56 62 60